Idaho Falls, ID

7:02 AM MST on November 24, 2017 (GMT -0700)
Fanning

Weather History for KIDA - May, 2013

Change the Weather History Date:

Tuesday, May 7, 2013

  Actual Average Record
Temperature  
Mean Temperature 55 °F 50 °F  
Max Temperature 68 °F 65 °F 86 °F (1992)
Min Temperature 41 °F 37 °F 22 °F (2010)
Degree Days  
Heating Degree Days 10 15  
Month to date heating degree days 110 108  
Since 1 July heating degree days 7219 7421  
Cooling Degree Days 0 0  
Month to date cooling degree days 0 0  
Year to date cooling degree days 0 0  
Growing Degree Days 5 (Base 50)    
Moisture  
Dew Point 40 °F    
Average Humidity 57    
Maximum Humidity 76    
Minimum Humidity 37    
Precipitation  
Precipitation T in 0.04 in 0.64 in (2000)
Month to date precipitation 0.08 0.32  
Year to date precipitation 1.46 3.67  
Sea Level Pressure  
Sea Level Pressure 29.88 in    
Wind  
Wind Speed 7 mph (South)    
Max Wind Speed 28 mph    
Max Gust Speed 32 mph    
Visibility 10 miles    
Events Rain    
T = Trace of Precipitation, MM = Missing Value Source: NWS Daily Summary

Daily Weather History Graph

Daily Weather History Graph

Search for Another Location

Airport or City:

Trip Planner

Search our weather history database for the weather conditions in past years. The results will help you decide how hot, cold, wet, or windy it might be!

Date:

Astronomy

May. 07, 2013 Rise Set
Actual Time 6:12 AM MDT 8:37 PM MDT
Civil Twilight 5:40 AM MDT 9:09 PM MDT
Nautical Twilight 5:00 AM MDT 9:50 PM MDT
Astronomical Twilight 4:15 AM MDT 10:35 PM MDT
Moon 4:52 AM MDT (5/7) 6:38 PM MDT (5/7)
Length of Visible Light 15h 29m
Length of Day
14h 25m
Waning Crescent, 5% of the Moon is Illuminated
May 7
Waning Crescent
May 9
New
May 17
First Quarter
May 24
Full
May 31
Last Quarter

Hourly Weather History & Observations

Time (MDT) Temp. Windchill Dew Point Humidity Pressure Visibility Wind Dir Wind Speed Gust Speed Precip Events Conditions
12:53 AM 55.0 °F - 39.0 °F 55% 29.85 in 10.0 mi South 12.7 mph - N/A   Mostly Cloudy
1:53 AM 55.0 °F - 39.0 °F 55% 29.86 in 10.0 mi South 10.4 mph - N/A   Mostly Cloudy
2:53 AM 54.0 °F - 39.9 °F 59% 29.85 in 10.0 mi SSW 9.2 mph - N/A   Overcast
3:53 AM 52.0 °F - 41.0 °F 66% 29.84 in 10.0 mi ESE 5.8 mph - 0.00 in   Scattered Clouds
4:53 AM 46.9 °F - 39.0 °F 74% 29.86 in 10.0 mi Calm Calm - N/A   Clear
5:53 AM 44.1 °F 40.1 °F 37.0 °F 76% 29.89 in 10.0 mi North 6.9 mph - N/A   Overcast
6:53 AM 46.0 °F 43.9 °F 37.9 °F 73% 29.90 in 10.0 mi NNE 4.6 mph - N/A   Overcast
7:53 AM 51.1 °F - 39.9 °F 66% 29.89 in 10.0 mi Calm Calm - N/A   Overcast
8:53 AM 55.0 °F - 41.0 °F 59% 29.88 in 10.0 mi SSW 4.6 mph - N/A   Partly Cloudy
9:53 AM 57.9 °F - 41.0 °F 53% 29.88 in 10.0 mi SW 5.8 mph - N/A   Partly Cloudy
10:53 AM 60.1 °F - 39.9 °F 47% 29.88 in 10.0 mi Calm Calm - N/A   Clear
11:53 AM 63.0 °F - 39.9 °F 43% 29.85 in 10.0 mi Variable 3.5 mph - N/A   Clear
12:53 PM 66.0 °F - 39.9 °F 38% 29.83 in 10.0 mi WSW 6.9 mph - N/A   Scattered Clouds
1:53 PM 66.9 °F - 39.9 °F 37% 29.82 in 10.0 mi SW 17.3 mph 21.9 mph N/A   Scattered Clouds
2:53 PM 60.1 °F - 42.1 °F 51% 29.86 in 10.0 mi SSW 25.3 mph 32.2 mph N/A   Clear
3:53 PM 57.0 °F - 42.1 °F 57% 29.87 in 10.0 mi South 15.0 mph 24.2 mph 0.00 in   Partly Cloudy
4:53 PM 57.9 °F - 41.0 °F 53% 29.92 in 10.0 mi SSW 6.9 mph - 0.00 in Rain Light Rain
5:53 PM 57.9 °F - 41.0 °F 53% 29.91 in 10.0 mi WSW 10.4 mph - 0.00 in   Mostly Cloudy
6:53 PM 57.0 °F - 39.9 °F 53% 29.91 in 10.0 mi South 4.6 mph - N/A   Clear
7:53 PM 57.0 °F - 41.0 °F 55% 29.92 in 10.0 mi East 5.8 mph - N/A   Clear
8:53 PM 55.0 °F - 43.0 °F 64% 29.93 in 10.0 mi ENE 4.6 mph - N/A   Mostly Cloudy
9:53 PM 52.0 °F - 41.0 °F 66% 29.94 in 10.0 mi East 5.8 mph - N/A   Clear
10:53 PM 53.1 °F - 41.0 °F 64% 29.94 in 10.0 mi East 6.9 mph - N/A   Overcast
11:53 PM 52.0 °F - 42.1 °F 69% 29.93 in 10.0 mi SSE 5.8 mph - 0.00 in   Overcast